Regional Weather Roundup
Issued by NWS

Home | Current Version | Previous Version | Graphics & Text | Print | Product List | Glossary On
Versions: 1 2 3 4 5 6 7 8 9 10 11 12 13 14 15 16 17 18 19 20 21 22 23 24 25 26 27 28 29 30 31 32 33 34 35 36 37 38 39 40 41 42 43 44 45 46 47 48 49 50
000
ASUS45 KTFX 210510
RWRMT
MONTANA REGIONAL WEATHER ROUNDUP
NATIONAL WEATHER SERVICE GREAT FALLS MT
1100 PM MDT SUN AUG 20 2017

NOTE: "FAIR" INDICATES FEW OR NO CLOUDS BELOW 12000 FEET WITH NO
SIGNIFICANT WEATHER AND/OR OBSTRUCTIONS TO VISIBILITY.

MTZ001>007-043-210600-
WEST OF THE DIVIDE

CITY           SKY/WX    TMP DP  RH WIND       PRES   REMARKS
KALISPELL      CLEAR     56  40  55 CALM      30.06R
MISSOULA       PTCLDY    64  36  35 NW5       30.08R
BUTTE          CLOUDY    63  30  28 NW7       30.17R
MULLAN PASS    CLEAR     53  32  44 NW5       30.22S
ANACONDA         N/A     57  34  41 SW3       30.15R
DEER LODGE       N/A     63  34  34 N6        30.15S
EUREKA           N/A     68  36  30 MISG      30.05R
HAMILTON         N/A     57  45  62 S3        30.09S
LIBBY            N/A     63  39  42 CALM      30.05R
PLAINS           N/A     61  41  47 CALM      30.07R
RONAN            N/A     53  45  74 CALM      30.12R
$$

MTZ008-052>055-210600-
SOUTHWEST MONTANA

CITY           SKY/WX    TMP DP  RH WIND       PRES   REMARKS
BOZEMAN        CLOUDY    63  26  24 NW5       30.10R
DILLON         CLEAR     62  29  28 CALM      30.12R
W YELLOWSTONE  CLOUDY    55  34  44 CALM      30.21R
ENNIS          CLOUDY    55  32  41 NE9       30.19R
THREE FORKS      N/A     63  35  35 CALM      30.08R
TWIN BRIDGES     N/A     70  28  21 N5        30.09R
$$

MTZ009-010-012-014-046-048-049-054-210600-
EAST SLOPES AND CENTRAL MONTANA

CITY           SKY/WX    TMP DP  RH WIND       PRES   REMARKS
CUT BANK       CLOUDY    63  36  36 W7        30.07R
GREAT FALLS    CLOUDY    65  30  27 SE6       30.07R
MALMSTROM AFB  CLOUDY    62  31  30 S7        30.06R
HELENA         CLOUDY    68  31  25 E3        30.09R
AUGUSTA        MOCLDY    61  31  32 NW10      30.10R
BOWMANS CRNR   MOCLDY    64  29  26 NW3       30.08R
CHOTEAU          N/A     63  36  36 NW10      30.09S
CONRAD           N/A     61  39  44 CALM      30.08R
FAIRFIELD        N/A     62  33  33 CALM      30.07R
POWER            N/A     62  31  30 W5        30.06R
RAYNESFORD       N/A     55  29  37 CALM      30.10R
ULM              N/A     57  29  34 S3        30.08R
$$

MTZ011-013-016-021-045-047-050-051-210600-
NORTH CENTRAL MONTANA

CITY           SKY/WX    TMP DP  RH WIND       PRES   REMARKS
HAVRE          CLOUDY    69  31  24 NE7       30.02R
LEWISTOWN      CLOUDY    58  33  39 SE5       30.08R
N BAR RANCH    MOCLDY    61  30  31 CALM      30.11S
CHINOOK          N/A     70  32  24 N7        30.00R
DENTON           N/A     65  29  25 CALM      30.02R
GEYSER           N/A     60  26  28 SW9       30.08R
GRASS RANGE    MOCLDY    60  31  33 W5        30.04R
JUDITH GAP     MOCLDY    60  31  33 NW8       30.10R
WINIFRED       MOCLDY    64  29  26 E9        30.05R
$$

MTZ017>020-022>027-061-062-210600-
NORTHEAST MONTANA

CITY           SKY/WX    TMP DP  RH WIND       PRES   REMARKS
GLASGOW        PTCLDY    65  35  33 NW6       29.95R
JORDAN           N/A     65  35  33 N10       29.98R
SIDNEY         CLOUDY    59  47  64 S7        29.97F
WOLF POINT     CLOUDY    71  40  32 CALM      29.94R
MALTA          MOCLDY    70  30  23 N9G15     29.97S
PLENTYWOOD       N/A     64  43  45 SE10      29.94S
POPLAR           N/A     70  43  37 S3        29.94R
SCOBEY           N/A     65  38  36 CALM      29.96R
$$

MTZ028>42-056>058-210600-
SOUTHCENTRAL AND SOUTHEAST MONTANA

CITY           SKY/WX    TMP DP  RH WIND       PRES   REMARKS
BAKER          CLOUDY    63  45  51 SE16      29.99S
BILLINGS       PTCLDY    69  34  27 N9        30.03R
LIVINGSTON     PTCLDY    61  32  33 CALM      30.10R
MILES CITY     CLOUDY    71  41  33 NE14      29.94R
BIG TIMBER     CLEAR     68  25  19 CALM      30.12R
EKALAKA          N/A     65  41  41 SE13      29.98R
HARLOWTON      MOCLDY    63  30  28 MISG      30.09R
LAUREL           N/A     65  33  30 NW2       30.03F
$$

REGIONAL REPORTS...DAKOTAS

CITY           SKY/WX    TMP DP  RH WIND       PRES   REMARKS
WILLISTON      CLOUDY    66  46  48 S5        29.97F
MINOT          PTCLDY    65  50  58 S5        30.00S
DICKINSON      CLOUDY    56  46  69 SE12      30.00F
BEACH          MOCLDY    59  48  67 SE15G21   30.02S
CROSBY         CLOUDY    64  45  48 S14G21    29.95S
TIOGA            N/A     61  46  59 S14       30.00F
WATFORD CITY     N/A     63  46  55 SE7       29.99S
BISMARCK       CLOUDY    58  54  86 S5        30.05S
GRAND FORKS    PTCLDY    55  51  86 SW3       30.02R
FARGO          PTCLDY    62  54  74 SW3       30.03S
BUFFALO SD       N/A     64  48  56 SE14      29.95S
RAPID CITY     CLEAR     67  54  63 SE12      30.01F
$$

REGIONAL REPORTS...WYOMING/IDAHO/WASHINGTON

CITY           SKY/WX    TMP DP  RH WIND       PRES   REMARKS
GILLETTE       CLEAR     67  50  54 W6        30.01R
SHERIDAN       CLOUDY    66  39  37 W10       30.04R
BUFFALO WY     CLOUDY    69  34  27 NW14      30.09R
CODY           CLOUDY    64  31  28 CALM      30.13R
YELLOWSTONE LA   N/A     46  38  73 CALM      30.30R
IDAHO FALLS    CLOUDY    69  39  33 S12       30.07R
SALMON         MOCLDY    69  34  27 CALM      30.07R
BOISE          MOCLDY    72  37  28 CALM      29.99S
SPOKANE        PTCLDY    67  37  33 SW7       30.06R
$$

REGIONAL REPORTS...ALBERTA

CITY           SKY/WX    TMP DP  RH WIND       PRES   REMARKS
EDMONTON       CLEAR     48  45  87 W6        30.04R
CALGARY        PTCLDY    52  41  66 N6        30.11R
LETHBRIDGE     CLOUDY    63  37  39 NE7       30.03R
MEDICINE HAT   CLOUDY    66  37  34 N7G17     29.99R
$$

REGIONAL REPORTS...SASKATCHEWAN

CITY           SKY/WX    TMP DP  RH WIND       PRES   REMARKS
SWIFT CURRENT  CLOUDY    57  36  44 NE7       29.99R
SASKATOON      MOCLDY    50  43  76 W8        29.97R
$$



USA.gov is the U.S. government's official web portal to all federal, state and local government web resources and services.